COSMOS 1867

Satellite information

Favourite Embed

Satellite Type and Status

PAYLOADIN ORBIT

Key statistics

Satellite COSMOS 1867 at a glance.

Uptime

13815

Days in orbit

Revolutions

≈ 14.3

Per day

Orbit

LEO

Low Earth Orbit

Inclination

65.0

Latest

Satellite identification and parameters

Extended collection of information and parameters for COSMOS 1867.

Object identification

Identified? True

Debris? False

Object name: COSMOS 1867

International designator: 1987-060A

Object number (NORAD): 18187

Object ID (CCSDS): 18187

Country: COMMONWEALTH OF INDEPENDENT STATES (CIS)

Current information (Y/N): Y

RCS size: LARGE

Orbital parameters

Period: 100.598 minutes

Inclination: 65.0095 deg

SMA: 7165.041 km

Apoapsis: 798.956 km

Periapsis: 774.855 km

RAAN: 92.1297 deg

Eccentricy: 0.0016819

Argument of periapsis: 258.1107 deg

Mean anomaly: 101.8092 deg

Mean motion: 14.3144539 rev/day

Mean motion (dot): 0.00000014 rev/day2

B* drag term: 0.000043012 1/REarth

Two-line elements (TLE)

Creation date: May 5, 2025, 2:11 a.m.

Reference frame: TEME

Reference center: EARTH

Epoch: May 4, 2025, 3:30 p.m. UTC

TLE line 0: 0 COSMOS 1867

TLE line 1: 1 18187U 87060A 25124.64644323 .00000014 00000-0 43012-4 0 9991

TLE line 2: 2 18187 65.0095 92.1297 0016819 258.1107 101.8092 14.31445390975692

Live tracking on map

Real-time ground track for satellite COSMOS 1867.

In-orbit conjunctions

A list of the most updated potential collisions computed for object COSMOS 1867.

Target Orbit TCA Probability of collision Miss distance Type
CZ-6A DEB SSO 2025-04-26 05:47:34 0.0001434636 138.0 (m) DEBRIS
CZ-6A DEB LEO 2025-04-14 14:14:09 0.0005021498 699.0 (m) DEBRIS
IRIDIUM 33 DEB LEO 2025-03-16 12:22:14 0.0001177758 596.0 (m) DEBRIS
CZ-4 DEB SSO 2025-03-10 14:32:09 0.0001300866 287.0 (m) DEBRIS
NOAA 16 DEB SSO 2025-01-24 18:09:55 0.0008732706 51.0 (m) DEBRIS

Associated space launch

Nuclear-powered magnetospheric research satellite

COSMOS 1867 was lifted into orbit during the mission ‘Tsiklon-2 | Plasma-A 2’, on board a Tsiklon-2 space rocket.

The launch took place on July 10, 1987, 3:35 p.m. from 90.

For more information about the launch, click the button.

Launch to space Tsiklon-2 | Plasma-A 2
Tsiklon-2 | Plasma-A 2

Agency: N/A

Status: Launch Successful

Launch date: July 10, 1987, 3:35 p.m. UTC

Rocket: Tsiklon-2

Launch pad: 90

Location: Baikonur Cosmodrome, Republic of Kazakhstan

...

Latest news about this satellite

There are no fresh news available about this satellite. Check back as we update our databases every day.


Newsletter sign-up

Weekly statistics, charts and insights to help you stay on top of the space industry.